| time (UTC) | temp C | wind direction | speed KPH | gust KPH | rain 1hr cm | rain 24hr cm | rain mn cm | humidity % | barometer mb |
| 20260505160505 | 13 | 296 | 4.8 | 11.3 | 0.00 | 0.99 | 0.18 | 85 | 1015.2 |
| 20260505152006 | 12 | 285 | 4.8 | 11.3 | 0.00 | 0.99 | 0.18 | 88 | 1015.2 |
| 20260505151505 | 12 | 296 | 4.8 | 16.1 | 0.00 | 0.99 | 0.18 | 88 | 1015.0 |
| 20260505151006 | 12 | 283 | 6.4 | 16.1 | 0.00 | 0.99 | 0.18 | 88 | 1014.9 |
| 20260505150506 | 12 | 270 | 4.8 | 16.1 | 0.00 | 0.99 | 0.18 | 88 | 1014.8 |
| 20260505140504 | 12 | 245 | 4.8 | 9.7 | 0.00 | 0.99 | 0.18 | 90 | 1014.4 |
| 20260505125005 | 12 | 282 | 3.2 | 8.0 | 0.00 | 0.99 | 0.18 | 90 | 1014.1 |
| 20260505124505 | 12 | 301 | 1.6 | 4.8 | 0.00 | 0.99 | 0.18 | 90 | 1014.1 |
| 20260505124005 | 12 | 287 | 0.0 | 6.4 | 0.00 | 0.99 | 0.18 | 90 | 1014.1 |
| 20260505123504 | 12 | 292 | 3.2 | 6.4 | 0.00 | 0.99 | 0.18 | 90 | 1014.1 |
| 20260505123005 | 12 | 299 | 3.2 | 4.8 | 0.00 | 0.99 | 0.18 | 90 | 1014.0 |
| 20260505122502 | 12 | 257 | 3.2 | 11.3 | 0.00 | 0.99 | 0.18 | 90 | 1014.1 |
| 20260505122005 | 12 | 261 | 4.8 | 11.3 | 0.00 | 0.99 | 0.18 | 90 | 1014.0 |
| 20260505121505 | 12 | 273 | 3.2 | 8.0 | 0.00 | 0.99 | 0.18 | 90 | 1014.1 |
| 20260505121006 | 12 | 271 | 1.6 | 11.3 | 0.00 | 0.99 | 0.18 | 90 | 1014.2 |
| 20260505120505 | 12 | 244 | 4.8 | 11.3 | 0.00 | 0.99 | 0.18 | 90 | 1014.1 |
| 20260505120006 | 12 | 262 | 1.6 | 6.4 | 0.00 | 0.99 | 0.18 | 90 | 1014.1 |
| 20260505115504 | 12 | 290 | 3.2 | 9.7 | 0.00 | 0.99 | 0.18 | 90 | 1014.1 |
| 20260505115006 | 12 | 263 | 4.8 | 9.7 | 0.00 | 0.99 | 0.18 | 89 | 1014.0 |
| 20260505114005 | 11 | 265 | 4.8 | 9.7 | 0.00 | 0.99 | 0.18 | 89 | 1014.0 |
| 20260505113006 | 11 | 263 | 1.6 | 12.9 | 0.00 | 0.99 | 0.18 | 89 | 1014.0 |
| 20260505112505 | 11 | 277 | 3.2 | 12.9 | 0.00 | 0.99 | 0.18 | 89 | 1014.1 |
| 20260505112005 | 11 | 291 | 1.6 | 6.4 | 0.00 | 0.99 | 0.18 | 89 | 1014.1 |
| 20260505111505 | 11 | 290 | 1.6 | 12.9 | 0.00 | 0.99 | 0.18 | 89 | 1014.2 |
| 20260505111005 | 11 | 251 | 3.2 | 14.5 | 0.00 | 0.99 | 0.18 | 89 | 1014.0 |
| 20260505102005 | 11 | 269 | 3.2 | 6.4 | 0.00 | 0.99 | 0.18 | 90 | 1014.4 |
| 20260505101505 | 11 | 234 | 0.0 | 3.2 | 0.00 | 0.99 | 0.18 | 90 | 1014.4 |
| 20260505101005 | 11 | 234 | 0.0 | 9.7 | 0.00 | 0.99 | 0.18 | 90 | 1014.3 |
| 20260505095504 | 11 | 252 | 1.6 | 8.0 | 0.00 | 0.99 | 0.18 | 90 | 1014.3 |
| 20260505094505 | 11 | 275 | 3.2 | 6.4 | 0.00 | 0.99 | 0.18 | 90 | 1014.4 |
| 20260505094005 | 11 | 263 | 3.2 | 14.5 | 0.00 | 0.99 | 0.18 | 90 | 1014.3 |
| 20260505093505 | 11 | 227 | 6.4 | 14.5 | 0.03 | 0.99 | 0.18 | 90 | 1014.2 |
| 20260505093005 | 11 | 244 | 6.4 | 12.9 | 0.03 | 0.99 | 0.18 | 90 | 1014.2 |
| 20260505092504 | 11 | 223 | 6.4 | 14.5 | 0.03 | 0.99 | 0.18 | 90 | 1014.2 |
| 20260505092005 | 11 | 230 | 8.0 | 14.5 | 0.05 | 0.99 | 0.18 | 90 | 1014.3 |
| 20260505091006 | 11 | 269 | 4.8 | 12.9 | 0.05 | 0.99 | 0.18 | 90 | 1014.4 |
| 20260505090500 | 11 | 322 | 6.4 | 12.9 | 0.08 | 0.99 | 0.18 | 90 | 1014.4 |
| 20260505090005 | 11 | 183 | 6.4 | 19.3 | 0.08 | 0.99 | 0.18 | 90 | 1014.3 |
| 20260505085459 | 11 | 230 | 9.7 | 19.3 | 0.10 | 0.99 | 0.18 | 90 | 1014.4 |
| 20260505085006 | 11 | 280 | 4.8 | 16.1 | 0.10 | 0.99 | 0.18 | 90 | 1014.4 |
| 20260505084459 | 11 | 266 | 6.4 | 16.1 | 0.10 | 0.99 | 0.18 | 90 | 1014.6 |
| 20260505084004 | 11 | 312 | 4.8 | 12.9 | 0.10 | 0.99 | 0.18 | 90 | 1014.7 |
| 20260505083459 | 11 | 239 | 6.4 | 14.5 | 0.10 | 0.97 | 0.15 | 90 | 1014.7 |
| 20260505083006 | 11 | 290 | 4.8 | 14.5 | 0.10 | 0.97 | 0.15 | 90 | 1014.9 |
| 20260505082500 | 11 | 255 | 4.8 | 16.1 | 0.10 | 0.97 | 0.15 | 90 | 1015.0 |
| 20260505081501 | 11 | 275 | 8.0 | 12.9 | 0.10 | 0.94 | 0.13 | 90 | 1014.7 |
| 20260505081005 | 11 | 319 | 6.4 | 12.9 | 0.08 | 0.91 | 0.10 | 90 | 1014.7 |
| 20260505080500 | 11 | 300 | 4.8 | 17.7 | 0.10 | 0.91 | 0.10 | 90 | 1014.8 |
| 20260505075505 | 11 | 262 | 9.7 | 16.1 | 0.10 | 0.89 | 0.08 | 90 | 1014.9 |
| 20260505075007 | 11 | 268 | 6.4 | 16.1 | 0.10 | 0.89 | 0.08 | 90 | 1014.7 |
| 20260505074505 | 11 | 252 | 6.4 | 12.9 | 0.13 | 0.89 | 0.08 | 90 | 1014.8 |
| 20260505074007 | 11 | 237 | 6.4 | 12.9 | 0.13 | 0.89 | 0.08 | 90 | 1014.8 |
| 20260505073505 | 11 | 272 | 6.4 | 14.5 | 0.10 | 0.86 | 0.05 | 90 | 1014.8 |
| 20260505073007 | 11 | 267 | 8.0 | 14.5 | 0.10 | 0.86 | 0.05 | 91 | 1014.8 |
| 20260505072505 | 11 | 246 | 4.8 | 14.5 | 0.10 | 0.86 | 0.05 | 91 | 1014.9 |
| 20260505072006 | 11 | 300 | 6.4 | 14.5 | 0.10 | 0.84 | 0.03 | 91 | 1014.8 |
| 20260505071506 | 11 | 288 | 6.4 | 11.3 | 0.10 | 0.84 | 0.03 | 91 | 1014.9 |
| 20260505071007 | 11 | 288 | 4.8 | 9.7 | 0.13 | 0.84 | 0.03 | 91 | 1015.0 |
| 20260505070505 | 11 | 282 | 3.2 | 12.9 | 0.10 | 0.81 | 0.00 | 91 | 1015.2 |
| 20260505070006 | 11 | 278 | 4.8 | 12.9 | 0.13 | 0.81 | 0.81 | 91 | 1015.1 |
| 20260505065505 | 11 | 272 | 6.4 | 14.5 | 0.10 | 0.79 | 0.79 | 91 | 1014.9 |
| 20260505065005 | 11 | 240 | 6.4 | 14.5 | 0.13 | 0.79 | 0.79 | 91 | 1015.0 |
| 20260505064506 | 11 | 272 | 6.4 | 14.5 | 0.10 | 0.76 | 0.76 | 91 | 1015.2 |
| 20260505064006 | 11 | 281 | 4.8 | 11.3 | 0.13 | 0.76 | 0.76 | 90 | 1015.2 |
| 20260505063505 | 11 | 293 | 4.8 | 14.5 | 0.13 | 0.76 | 0.76 | 90 | 1015.2 |
| 20260505062005 | 11 | 306 | 6.4 | 14.5 | 0.10 | 0.74 | 0.74 | 90 | 1014.9 |
| 20260505061505 | 11 | 287 | 6.4 | 12.9 | 0.10 | 0.74 | 0.74 | 90 | 1014.7 |
| 20260505060505 | 11 | 280 | 4.8 | 12.9 | 0.10 | 0.71 | 0.71 | 90 | 1015.1 |
| 20260505060009 | 11 | 287 | 4.8 | 17.7 | 0.08 | 0.69 | 0.69 | 90 | 1015.1 |
| 20260505055505 | 11 | 290 | 8.0 | 17.7 | 0.08 | 0.69 | 0.69 | 90 | 1014.9 |
| 20260505055005 | 11 | 279 | 6.4 | 16.1 | 0.05 | 0.66 | 0.66 | 90 | 1015.0 |
| 20260505054506 | 11 | 260 | 9.7 | 16.1 | 0.08 | 0.66 | 0.66 | 90 | 1015.0 |
| 20260505054006 | 11 | 282 | 8.0 | 14.5 | 0.08 | 0.64 | 0.64 | 90 | 1015.0 |
| 20260505053505 | 11 | 291 | 4.8 | 12.9 | 0.08 | 0.64 | 0.64 | 90 | 1015.1 |
| 20260505052504 | 11 | 286 | 4.8 | 12.9 | 0.15 | 0.64 | 0.64 | 90 | 1015.2 |
| 20260505052006 | 11 | 297 | 4.8 | 12.9 | 0.18 | 0.64 | 0.64 | 90 | 1015.5 |
| 20260505051505 | 11 | 295 | 1.6 | 9.7 | 0.20 | 0.64 | 0.64 | 90 | 1015.3 |
| 20260505051005 | 11 | 296 | 1.6 | 8.0 | 0.23 | 0.64 | 0.64 | 90 | 1015.4 |
| 20260505050504 | 11 | 317 | 3.2 | 8.0 | 0.23 | 0.61 | 0.61 | 90 | 1015.3 |
| 20260505041505 | 11 | 269 | 0.0 | 3.2 | 0.15 | 0.43 | 0.43 | 90 | 1015.7 |
| 20260505041007 | 11 | 294 | 1.6 | 8.0 | 0.13 | 0.41 | 0.41 | 90 | 1016.0 |
| 20260505040505 | 11 | 248 | 1.6 | 8.0 | 0.08 | 0.36 | 0.36 | 90 | 1016.1 |
| 20260505040009 | 11 | 280 | 3.2 | 8.0 | 0.10 | 0.36 | 0.36 | 89 | 1016.0 |
| 20260505035504 | 11 | 279 | 3.2 | 11.3 | 0.10 | 0.33 | 0.33 | 89 | 1016.0 |
| 20260505035005 | 11 | 309 | 4.8 | 11.3 | 0.10 | 0.33 | 0.33 | 89 | 1015.9 |
| 20260505034505 | 11 | 291 | 3.2 | 8.0 | 0.08 | 0.30 | 0.30 | 89 | 1015.7 |
| 20260505034005 | 11 | 304 | 3.2 | 6.4 | 0.08 | 0.30 | 0.30 | 89 | 1015.4 |
| 20260505033006 | 11 | 306 | 3.2 | 14.5 | 0.08 | 0.30 | 0.30 | 89 | 1014.7 |
| 20260505032505 | 11 | 290 | 3.2 | 11.3 | 0.10 | 0.30 | 0.30 | 89 | 1014.5 |
| 20260505032004 | 11 | 318 | 3.2 | 12.9 | 0.08 | 0.28 | 0.28 | 89 | 1014.4 |
| 20260505031505 | 11 | 314 | 1.6 | 11.3 | 0.10 | 0.28 | 0.28 | 89 | 1014.5 |
| 20260505031005 | 11 | 309 | 3.2 | 11.3 | 0.10 | 0.28 | 0.28 | 89 | 1014.5 |
| 20260505030505 | 11 | 263 | 0.0 | 9.7 | 0.13 | 0.28 | 0.28 | 89 | 1014.4 |
| 20260505030008 | 11 | 316 | 4.8 | 14.5 | 0.10 | 0.25 | 0.25 | 88 | 1014.5 |
| 20260505025006 | 11 | 279 | 8.0 | 12.9 | 0.08 | 0.23 | 0.23 | 88 | 1014.6 |
| 20260505024505 | 11 | 281 | 8.0 | 12.9 | 0.08 | 0.23 | 0.23 | 88 | 1014.7 |
| 20260505024006 | 11 | 285 | 4.8 | 14.5 | 0.10 | 0.23 | 0.23 | 89 | 1014.9 |
| 20260505023505 | 11 | 278 | 8.0 | 14.5 | 0.10 | 0.23 | 0.23 | 89 | 1015.2 |
| 20260505022505 | 11 | 302 | 6.4 | 14.5 | 0.10 | 0.20 | 0.20 | 89 | 1014.9 |
| 20260505022005 | 12 | 277 | 6.4 | 14.5 | 0.10 | 0.20 | 0.20 | 88 | 1015.0 |
| 20260505021505 | 12 | 296 | 4.8 | 12.9 | 0.10 | 0.18 | 0.18 | 88 | 1015.0 |
| 20260505021006 | 12 | 276 | 8.0 | 12.9 | 0.10 | 0.18 | 0.18 | 88 | 1015.1 |
| 20260505020504 | 12 | 259 | 8.0 | 12.9 | 0.08 | 0.15 | 0.15 | 88 | 1015.1 |
| 20260505020008 | 12 | 276 | 6.4 | 12.9 | 0.08 | 0.15 | 0.15 | 88 | 1015.0 |
| 20260505015504 | 12 | 243 | 4.8 | 11.3 | 0.08 | 0.15 | 0.15 | 88 | 1015.0 |
| 20260505015005 | 12 | 288 | 4.8 | 12.9 | 0.08 | 0.15 | 0.15 | 88 | 1015.1 |
| 20260505014505 | 12 | 263 | 4.8 | 14.5 | 0.10 | 0.15 | 0.15 | 88 | 1015.1 |
| 20260505013505 | 12 | 270 | 6.4 | 16.1 | 0.08 | 0.13 | 0.13 | 87 | 1015.3 |
| 20260505013008 | 12 | 246 | 9.7 | 17.7 | 0.08 | 0.13 | 0.13 | 87 | 1015.4 |
| 20260505012505 | 12 | 243 | 9.7 | 17.7 | 0.08 | 0.10 | 0.10 | 87 | 1015.3 |
| 20260505012005 | 12 | 268 | 9.7 | 22.5 | 0.08 | 0.10 | 0.10 | 87 | 1015.3 |
| 20260505010505 | 12 | 226 | 8.0 | 19.3 | 0.08 | 0.08 | 0.08 | 86 | 1015.5 |
| 20260505010008 | 12 | 269 | 247.8 | 1054.1 | 5.49 | 0.00 | 0.08 | 86 | |
| 20260505005504 | 12 | 227 | 9.7 | 17.7 | 0.08 | 0.08 | 0.08 | 86 | 1015.3 |
| 20260505005005 | 12 | 278 | 6.4 | 16.1 | 0.08 | 0.08 | 0.08 | 86 | 1015.2 |
| 20260505004504 | 12 | 229 | 6.4 | 17.7 | 0.05 | 0.05 | 0.05 | 86 | 1015.2 |
| 20260505004004 | 12 | 241 | 9.7 | 17.7 | 0.05 | 0.05 | 0.05 | 86 | 1015.3 |
| 20260505003504 | 13 | 272 | 6.4 | 17.7 | 0.05 | 0.05 | 0.05 | 86 | 1015.3 |
| 20260505002504 | 13 | 312 | 4.8 | 12.9 | 0.03 | 0.03 | 0.03 | 85 | 1015.3 |
| 20260505002005 | 13 | 274 | 4.8 | 14.5 | 0.03 | 0.03 | 0.03 | 84 | 1015.4 |
| 20260505001505 | 13 | 292 | 6.4 | 14.5 | 0.03 | 0.03 | 0.03 | 84 | 1015.3 |
| 20260505001006 | 13 | 288 | 4.8 | 17.7 | 0.00 | 0.00 | 0.00 | 83 | 1015.3 |
| 20260505000504 | 13 | 313 | 8.0 | 17.7 | 0.00 | 0.00 | 0.00 | 82 | 1015.3 |
| 20260505000006 | 13 | 333 | 3.2 | 14.5 | 0.00 | 0.00 | 0.00 | 81 | 1015.2 |
| 20260504235506 | 13 | 303 | 3.2 | 16.1 | 0.00 | 0.00 | 0.00 | 81 | 1015.2 |
| 20260504235005 | 13 | 284 | 4.8 | 16.1 | 0.00 | 0.00 | 0.00 | 81 | 1015.1 |
| 20260504234504 | 13 | 253 | 6.4 | 12.9 | 0.00 | 0.00 | 0.00 | 81 | 1015.1 |
| 20260504233504 | 13 | 284 | 6.4 | 14.5 | 0.00 | 0.00 | 0.00 | 81 | 1015.1 |
| 20260504233005 | 13 | 302 | 6.4 | 14.5 | 0.00 | 0.00 | 0.00 | 81 | 1015.2 |
| 20260504232505 | 13 | 238 | 4.8 | 19.3 | 0.00 | 0.00 | 0.00 | 81 | 1015.1 |
| 20260504232005 | 13 | 281 | 9.7 | 19.3 | 0.00 | 0.00 | 0.00 | 80 | 1015.1 |
| 20260504231504 | 13 | 273 | 6.4 | 16.1 | 0.00 | 0.00 | 0.00 | 80 | 1015.2 |
| 20260504231005 | 14 | 293 | 8.0 | 16.1 | 0.00 | 0.00 | 0.00 | 79 | 1015.2 |
| 20260504230504 | 14 | 277 | 8.0 | 16.1 | 0.00 | 0.00 | 0.00 | 78 | 1015.1 |
| 20260504230006 | 14 | 229 | 8.0 | 17.7 | 0.00 | 0.00 | 0.00 | 79 | 1015.0 |
| 20260504225505 | 14 | 242 | 4.8 | 17.7 | 0.00 | 0.00 | 0.00 | 78 | 1015.0 |
| 20260504225005 | 15 | 260 | 8.0 | 14.5 | 0.00 | 0.00 | 0.00 | 77 | 1015.0 |
| 20260504224504 | 15 | 279 | 6.4 | 14.5 | 0.00 | 0.00 | 0.00 | 76 | 1015.0 |
| 20260504224005 | 15 | 225 | 4.8 | 14.5 | 0.00 | 0.00 | 0.00 | 74 | 1015.2 |
| 20260504223006 | 15 | 259 | 8.0 | 17.7 | 0.00 | 0.00 | 0.00 | 70 | 1015.3 |
| 20260504222504 | 15 | 250 | 6.4 | 17.7 | 0.00 | 0.00 | 0.00 | 68 | 1015.3 |
| 20260504222006 | 16 | 263 | 8.0 | 16.1 | 0.00 | 0.00 | 0.00 | 66 | 1015.4 |
| 20260504221505 | 16 | 263 | 8.0 | 16.1 | 0.00 | 0.00 | 0.00 | 65 | 1015.3 |
| 20260504221005 | 16 | 290 | 9.7 | 17.7 | 0.00 | 0.00 | 0.00 | 65 | 1015.3 |
| 20260504220505 | 16 | 248 | 6.4 | 17.7 | 0.00 | 0.00 | 0.00 | 66 | 1015.2 |
| 20260504220006 | 16 | 256 | 6.4 | 14.5 | 0.00 | 0.00 | 0.00 | 65 | 1015.3 |
| 20260504215505 | 16 | 244 | 8.0 | 14.5 | 0.00 | 0.00 | 0.00 | 64 | 1015.3 |
| 20260504215005 | 16 | 286 | 8.0 | 16.1 | 0.00 | 0.00 | 0.00 | 64 | 1015.2 |
| 20260504214005 | 16 | 221 | 9.7 | 17.7 | 0.00 | 0.00 | 0.00 | 64 | 1015.1 |
| 20260504213505 | 16 | 196 | 6.4 | 17.7 | 0.00 | 0.00 | 0.00 | 63 | 1015.2 |
| 20260504213005 | 16 | 244 | 6.4 | 12.9 | 0.00 | 0.00 | 0.00 | 66 | 1015.2 |
| 20260504212505 | 16 | 273 | 3.2 | 9.7 | 0.00 | 0.00 | 0.00 | 66 | 1015.2 |
| 20260504212005 | 16 | 225 | 4.8 | 9.7 | 0.00 | 0.00 | 0.00 | 65 | 1015.2 |
| 20260504211005 | 16 | 225 | 6.4 | 14.5 | 0.00 | 0.00 | 0.00 | 63 | 1015.4 |
| 20260504210504 | 17 | 235 | 4.8 | 11.3 | 0.00 | 0.00 | 0.00 | 63 | 1015.2 |
| 20260504210006 | 17 | 233 | 4.8 | 12.9 | 0.00 | 0.00 | 0.00 | 62 | 1015.3 |
| 20260504205005 | 17 | 235 | 6.4 | 12.9 | 0.00 | 0.00 | 0.00 | 59 | 1015.3 |
| 20260504204505 | 17 | 173 | 1.6 | 12.9 | 0.00 | 0.00 | 0.00 | 60 | 1015.2 |
| 20260504204005 | 17 | 296 | 4.8 | 12.9 | 0.00 | 0.00 | 0.00 | 59 | 1015.2 |
| 20260504203005 | 17 | 253 | 3.2 | 12.9 | 0.00 | 0.00 | 0.00 | 57 | 1015.1 |
| 20260504202504 | 17 | 225 | 4.8 | 12.9 | 0.00 | 0.00 | 0.00 | 57 | 1015.2 |
| 20260504202004 | 17 | 223 | 4.8 | 11.3 | 0.00 | 0.00 | 0.00 | 57 | 1015.1 |
| 20260504201504 | 17 | 171 | 4.8 | 12.9 | 0.00 | 0.00 | 0.00 | 57 | 1015.1 |
| 20260504201005 | 17 | 306 | 4.8 | 12.9 | 0.00 | 0.00 | 0.00 | 57 | 1015.0 |
| 20260504200007 | 17 | 223 | 4.8 | 14.5 | 0.00 | 0.00 | 0.00 | 57 | 1015.2 |
| 20260504195504 | 17 | 215 | 6.4 | 16.1 | 0.00 | 0.00 | 0.00 | 57 | 1015.2 |
| 20260504195006 | 17 | 267 | 3.2 | 16.1 | 0.00 | 0.00 | 0.00 | 58 | 1015.3 |
| 20260504194505 | 17 | 219 | 8.0 | 16.1 | 0.00 | 0.00 | 0.00 | 57 | 1015.2 |
| 20260504194007 | 17 | 293 | 3.2 | 8.0 | 0.00 | 0.00 | 0.00 | 58 | 1015.4 |
| 20260504193504 | 17 | 334 | 3.2 | 14.5 | 0.00 | 0.00 | 0.00 | 59 | 1015.3 |
| 20260504192005 | 17 | 267 | 1.6 | 17.7 | 0.00 | 0.00 | 0.00 | 59 | 1015.3 |
| 20260504191505 | 17 | 318 | 8.0 | 17.7 | 0.00 | 0.00 | 0.00 | 59 | 1015.4 |
| 20260504191006 | 18 | 312 | 8.0 | 12.9 | 0.00 | 0.00 | 0.00 | 59 | 1015.4 |
| 20260504190504 | 18 | 237 | 4.8 | 14.5 | 0.00 | 0.00 | 0.00 | 58 | 1015.4 |
| 20260504190008 | 17 | 240 | 6.4 | 14.5 | 0.00 | 0.00 | 0.00 | 59 | 1015.4 |
| 20260504185504 | 17 | 257 | 6.4 | 17.7 | 0.00 | 0.00 | 0.00 | 60 | 1015.4 |
| 20260504185007 | 17 | 321 | 3.2 | 14.5 | 0.00 | 0.00 | 0.00 | 62 | 1015.5 |
| 20260504184504 | 17 | 276 | 4.8 | 14.5 | 0.00 | 0.00 | 0.00 | 63 | 1015.5 |
| 20260504184005 | 16 | 284 | 3.2 | 16.1 | 0.00 | 0.00 | 0.00 | 62 | 1015.6 |
| 20260504183504 | 16 | 292 | 8.0 | 16.1 | 0.00 | 0.00 | 0.00 | 60 | 1015.5 |
| 20260504183005 | 16 | 283 | 3.2 | 12.9 | 0.00 | 0.00 | 0.00 | 64 | 1015.5 |
| 20260504182505 | 17 | 289 | 4.8 | 12.9 | 0.00 | 0.00 | 0.00 | 64 | 1015.4 |
| 20260504182006 | 16 | 291 | 6.4 | 19.3 | 0.00 | 0.00 | 0.00 | 64 | 1015.5 |
| 20260504181005 | 17 | 269 | 6.4 | 17.7 | 0.00 | 0.00 | 0.00 | 66 | 1015.4 |
| 20260504180505 | 16 | 292 | 6.4 | 17.7 | 0.00 | 0.00 | 0.00 | 68 | 1015.2 |
| 20260504180006 | 16 | 311 | 8.0 | 17.7 | 0.00 | 0.00 | 0.00 | 69 | 1015.2 |
| 20260504175504 | 16 | 276 | 8.0 | 14.5 | 0.00 | 0.00 | 0.00 | 69 | 1015.3 |
| 20260504175005 | 16 | 332 | 9.7 | 17.7 | 0.00 | 0.00 | 0.00 | 70 | 1015.2 |
| 20260504174504 | 16 | 297 | 6.4 | 17.7 | 0.00 | 0.00 | 0.00 | 70 | 1015.3 |
| 20260504174005 | 16 | 267 | 8.0 | 17.7 | 0.00 | 0.00 | 0.00 | 70 | 1015.3 |
| 20260504173505 | 16 | 296 | 8.0 | 17.7 | 0.00 | 0.00 | 0.00 | 71 | 1015.2 |
| 20260504173006 | 16 | 295 | 8.0 | 16.1 | 0.00 | 0.00 | 0.00 | 70 | 1015.2 |
| 20260504172006 | 16 | 300 | 8.0 | 16.1 | 0.00 | 0.00 | 0.00 | 74 | 1015.1 |
| 20260504171505 | 15 | 279 | 8.0 | 17.7 | 0.00 | 0.00 | 0.00 | 76 | 1015.1 |
| 20260504171007 | 15 | 198 | 9.7 | 19.3 | 0.00 | 0.00 | 0.00 | 75 | 1015.0 |
| 20260504170504 | 15 | 257 | 9.7 | 19.3 | 0.00 | 0.00 | 0.00 | 76 | 1015.0 |